Hourly Data Report for June 10, 2012

HALIFAX STANFIELD INT'L A
NOVA SCOTIA

44°52'48.060" N
63°30'00.050" W
145.40 m
8202250
71395
YHZ

Download Data

Hourly Data (June 2012)
Hourly Data Report for June 10, 2012
TIME
LST
Temp Definition
°C
Dew Point Definition
°C
Rel Hum Definition
%
Precip. Amount Definition
mm

Wind Dir Definition
10's deg

Wind Spd Definition
km/h
Visibility Definition
km
Stn Press Definition
kPa
Hmdx Definition


Wind Chill Definition


Weather Definition


00:00 9.6 9.6 100   16 7 0.8 99.21     Fog
01:00 10.2 10.2 100   13 6 2.0 99.22     Fog
02:00 10.3 10.3 100   17 4 1.6 99.24     Fog
03:00 10.4 10.4 100   17 4 2.0 99.26     Fog
04:00 10.6 10.6 100     0 3.2 99.30     Fog
05:00 11.2 11.2 100   5 4 6.4 99.37     Fog
06:00 11.8 11.7 99   31 7 4.8 99.43     Fog
07:00 11.6 11.6 100   36 13 0.8 99.52     Fog
08:00 11.8 11.8 100   36 13 0.8 99.61     Fog
09:00 12.5 12.3 99   1 15 12.9 99.64     Cloudy
10:00 13.6 12.3 92   3 11 16.1 99.71     Cloudy
11:00 14.6 12.6 88   5 20 24.1 99.79     Cloudy
12:00 15.5 12.4 82   4 17 24.1 99.88     Cloudy
13:00 17.4 12.7 74   2 22 24.1 99.93     Mostly Cloudy
14:00 17.5 11.7 69   5 19 24.1 99.95     Mostly Cloudy
15:00 14.9 12.6 86   6 19 24.1 100.02     Rain Showers
16:00 16.2 12.3 78   7 20 24.1 100.11     Rain Showers
17:00 15.1 12.5 84   5 6 24.1 100.20     Rain Showers
18:00 15.4 11.3 77   3 7 24.1 100.27     Mainly Clear
19:00 15.2 10.1 72   4 7 24.1 100.32     Mainly Clear
20:00 13.7 10.1 79   36 6 24.1 100.41     Mainly Clear
21:00 11.4 10.6 95   18 9 24.1 100.54     Mainly Clear
22:00 10.3 9.8 97   33 6 24.1 100.62     Clear
23:00 10.4 9.9 97   32 6 24.1 100.61     Clear

Notes on Data Quality.

Legend

  • E = Estimated
  • M = Missing
  • NA = Not Available*
  • [empty] = Indicates an unobserved value
Date modified: